contact:dominique.lefevre@mio.osupytheas.fr, maurice.libes@osupytheas.fr
Project:EMSO Ligure-ouest http://www.emso-fr.org/EMSO-France
Sensor Aquadopp, line 04 Serial AQD8517 
DOI : "https://doi.org/10.17882/74513; https://doi.org/10.17882/83244" 
Title:EMSO Ligure Ouest : Data ligne ALBATROSS capteur AQUADOPP - deploiement 2021
Id,Date,Profondeur,Latitude,Longitude,X_East,Y_North,Z_Up,Amplitude_X,Amplitude_Y,Amplitude_Z,Batterie,SoundSpeed,Heading,Pitch,Roll,Pressure,Temperature,Speed,Direction
, , m, degrees North, degrees East, m.s-1, m.s-1,m.s-1, 1, 1, 1, Volt, m.s-1, degree, degree, degree, dbar, degree_C, m.s-1, degree
04,2022-05-27T21:30:00,1000.0,42.79,6.0312,-0.027,-0.021,0.006,62.0,64.0,61.0,12.0,1504.9,206.8,-0.8,-0.2,967.21,13.34,0.034,232.1
04,2022-05-27T22:00:00,1000.0,42.79,6.0312,-0.027,-0.005,0.001,63.0,66.0,62.0,11.9,1504.9,207.5,-0.7,-0.2,967.179,13.34,0.027,259.5
04,2022-05-27T22:30:00,1000.0,42.79,6.0312,-0.014,-0.009,-0.011,65.0,68.0,64.0,11.9,1504.9,211.4,-0.7,-0.2,967.134,13.35,0.016,237.3
04,2022-05-27T23:00:00,1000.0,42.79,6.0312,-0.027,-0.022,0.0,63.0,69.0,61.0,11.9,1504.9,208.6,-0.7,-0.2,967.162,13.35,0.034,230.8
04,2022-05-27T23:30:00,1000.0,42.79,6.0312,-0.016,-0.015,0.002,62.0,66.0,61.0,12.0,1504.9,215.6,-0.6,-0.2,967.152,13.35,0.021,226.9
04,2022-05-28T00:00:00,1000.0,42.79,6.0312,-0.013,-0.02,-0.002,61.0,63.0,61.0,11.9,1504.9,212.7,-0.6,-0.2,967.104,13.35,0.023,213.0
04,2022-05-28T00:30:00,1000.0,42.79,6.0312,-0.012,-0.022,0.012,62.0,64.0,63.0,12.0,1504.9,211.8,-0.6,-0.2,967.094,13.35,0.025,208.6
04,2022-05-28T01:00:00,1000.0,42.79,6.0312,-0.021,-0.017,0.007,64.0,64.0,64.0,12.0,1504.9,205.1,-0.5,-0.2,967.088,13.35,0.027,231.0
04,2022-05-28T01:30:00,1000.0,42.79,6.0312,-0.013,-0.021,-0.005,62.0,65.0,63.0,11.9,1504.9,198.2,-0.5,-0.2,967.141,13.35,0.024,211.8
04,2022-05-28T02:00:00,1000.0,42.79,6.0312,-0.019,-0.01,0.002,63.0,64.0,62.0,11.9,1504.9,219.9,-0.5,-0.3,967.114,13.34,0.021,242.2
04,2022-05-28T02:30:00,1000.0,42.79,6.0312,0.006,-0.025,-0.008,62.0,65.0,62.0,12.0,1504.9,180.6,-0.4,-0.2,967.124,13.35,0.025,166.5
04,2022-05-28T03:00:00,1000.0,42.79,6.0312,-0.011,-0.031,0.01,63.0,65.0,62.0,11.9,1504.9,205.6,-0.5,-0.2,967.148,13.35,0.032,199.5
04,2022-05-28T03:30:00,1000.0,42.79,6.0312,-0.004,-0.018,-0.004,64.0,65.0,62.0,12.0,1504.9,201.0,-0.5,-0.3,967.138,13.35,0.018,192.5
04,2022-05-28T04:00:00,1000.0,42.79,6.0312,-0.02,-0.028,0.0,64.0,66.0,62.0,11.9,1504.9,209.5,-0.5,-0.3,967.225,13.34,0.034,215.5
04,2022-05-28T04:30:00,1000.0,42.79,6.0312,-0.023,-0.016,-0.01,61.0,65.0,61.0,11.9,1504.9,202.1,-0.5,-0.3,967.218,13.34,0.028,235.2
04,2022-05-28T05:00:00,1000.0,42.79,6.0312,-0.027,-0.026,0.0,64.0,64.0,63.0,11.9,1504.9,212.5,-0.5,-0.3,967.231,13.34,0.037,226.1
04,2022-05-28T05:30:00,1000.0,42.79,6.0312,-0.013,-0.032,0.004,63.0,65.0,62.0,11.9,1504.9,187.9,-0.5,-0.3,967.273,13.34,0.034,202.1
04,2022-05-28T06:00:00,1000.0,42.79,6.0312,-0.01,-0.045,-0.01,64.0,64.0,62.0,12.0,1504.9,166.2,-0.5,-0.3,967.215,13.34,0.046,192.5
04,2022-05-28T06:30:00,1000.0,42.79,6.0312,-0.028,-0.028,0.001,62.0,66.0,61.0,12.0,1504.9,202.5,-0.6,-0.3,967.246,13.34,0.039,225.0
04,2022-05-28T07:00:00,1000.0,42.79,6.0312,-0.045,-0.035,0.002,61.0,65.0,62.0,11.9,1504.9,199.2,-0.5,-0.3,967.236,13.34,0.057,232.1
04,2022-05-28T07:30:00,1000.0,42.79,6.0312,-0.04,-0.042,0.001,63.0,65.0,62.0,11.9,1504.9,188.5,-0.6,-0.3,967.231,13.34,0.057,223.6
04,2022-05-28T08:00:00,1000.0,42.79,6.0312,-0.05,-0.022,0.003,63.0,65.0,61.0,12.0,1504.9,199.0,-0.6,-0.3,967.199,13.34,0.054,246.3
04,2022-05-28T08:30:00,1000.0,42.79,6.0312,-0.036,-0.026,0.01,61.0,65.0,64.0,11.9,1504.9,195.4,-0.6,-0.2,967.201,13.34,0.044,234.2
04,2022-05-28T09:00:00,1000.0,42.79,6.0312,-0.037,-0.029,-0.004,64.0,65.0,62.0,11.9,1504.9,199.8,-0.6,-0.2,967.185,13.34,0.047,231.9
04,2022-05-28T09:30:00,1000.0,42.79,6.0312,-0.035,-0.013,0.005,63.0,64.0,64.0,11.9,1504.9,199.5,-0.6,-0.2,967.164,13.34,0.037,249.6
04,2022-05-28T10:30:00,1000.0,42.79,6.0312,-0.045,-0.001,-0.021,63.0,64.0,62.0,11.9,1504.9,204.6,-0.7,-0.2,967.14,13.34,0.045,268.7
04,2022-05-28T11:00:00,1000.0,42.79,6.0312,-0.034,-0.009,-0.003,65.0,64.0,63.0,12.0,1504.9,206.7,-0.6,-0.2,967.1,13.34,0.035,255.2
04,2022-05-28T11:30:00,1000.0,42.79,6.0312,-0.037,-0.032,-0.005,66.0,66.0,64.0,12.0,1504.9,204.1,-0.7,-0.2,967.07,13.34,0.048,229.1
04,2022-05-28T12:00:00,1000.0,42.79,6.0312,-0.021,-0.007,0.005,65.0,65.0,64.0,11.9,1504.9,220.6,-0.7,-0.2,967.048,13.34,0.022,251.6
04,2022-05-28T12:30:00,1000.0,42.79,6.0312,-0.027,-0.014,-0.008,64.0,66.0,62.0,11.9,1504.8,218.4,-0.7,-0.3,967.079,13.33,0.03,242.6
04,2022-05-28T13:00:00,1000.0,42.79,6.0312,-0.034,-0.015,0.0,64.0,65.0,64.0,12.0,1504.9,209.7,-0.7,-0.2,967.048,13.34,0.037,246.2
04,2022-05-28T13:30:00,1000.0,42.79,6.0312,-0.023,-0.015,-0.004,65.0,66.0,65.0,12.0,1504.9,223.1,-0.7,-0.2,967.066,13.34,0.027,236.9
04,2022-05-28T14:00:00,1000.0,42.79,6.0312,-0.015,-0.017,0.011,63.0,66.0,63.0,12.0,1504.8,218.4,-0.7,-0.2,967.088,13.33,0.022,221.4
04,2022-05-28T14:30:00,1000.0,42.79,6.0312,-0.024,-0.025,0.007,64.0,65.0,64.0,11.9,1504.8,215.6,-0.6,-0.2,967.114,13.33,0.034,223.8
04,2022-05-28T15:00:00,1000.0,42.79,6.0312,-0.03,-0.023,0.016,63.0,66.0,63.0,11.9,1504.8,226.7,-0.7,-0.2,967.093,13.33,0.037,232.5
04,2022-05-28T15:30:00,1000.0,42.79,6.0312,-0.009,-0.027,0.011,65.0,65.0,64.0,11.9,1504.8,194.2,-0.6,-0.2,967.137,13.33,0.028,198.4
04,2022-05-28T16:00:00,1000.0,42.79,6.0312,-0.033,-0.033,0.014,64.0,65.0,63.0,11.9,1504.8,210.7,-0.6,-0.2,967.146,13.32,0.046,225.0
04,2022-05-28T16:30:00,1000.0,42.79,6.0312,-0.034,-0.032,0.012,65.0,67.0,61.0,11.9,1504.8,222.7,-0.7,-0.2,967.21,13.31,0.046,226.7
04,2022-05-28T17:00:00,1000.0,42.79,6.0312,-0.024,-0.03,0.003,64.0,65.0,63.0,11.9,1504.8,207.8,-0.6,-0.2,967.249,13.31,0.038,218.7
04,2022-05-28T17:30:00,1000.0,42.79,6.0312,-0.036,-0.012,0.007,65.0,67.0,65.0,11.9,1504.8,235.9,-0.6,-0.3,967.208,13.31,0.037,251.6
04,2022-05-28T18:00:00,1000.0,42.79,6.0312,-0.045,-0.015,0.004,64.0,67.0,63.0,11.9,1504.8,228.8,-0.6,-0.2,967.225,13.32,0.047,251.6
04,2022-05-28T18:30:00,1000.0,42.79,6.0312,-0.062,-0.018,0.0,64.0,68.0,64.0,11.9,1504.8,217.5,-0.5,-0.2,967.259,13.32,0.064,253.8
04,2022-05-28T19:00:00,1000.0,42.79,6.0312,-0.043,-0.003,0.009,64.0,66.0,64.0,11.9,1504.8,222.8,-0.6,-0.2,967.225,13.32,0.043,266.0
04,2022-05-28T19:30:00,1000.0,42.79,6.0312,-0.049,-0.019,0.002,65.0,66.0,64.0,11.9,1504.8,224.3,-0.6,-0.3,967.198,13.32,0.052,248.8
04,2022-05-28T20:00:00,1000.0,42.79,6.0312,-0.056,-0.013,0.001,65.0,69.0,63.0,11.9,1504.8,217.1,-0.6,-0.2,967.206,13.32,0.057,256.9
04,2022-05-28T20:30:00,1000.0,42.79,6.0312,-0.038,-0.014,0.001,67.0,67.0,63.0,12.0,1504.8,212.1,-0.6,-0.2,967.19,13.31,0.04,249.8
04,2022-05-28T21:00:00,1000.0,42.79,6.0312,-0.039,-0.002,0.007,64.0,69.0,63.0,11.9,1504.8,221.6,-0.6,-0.3,967.167,13.31,0.039,267.1
